WA5KWK Weather Reports


Display with metric or nautical units.
time (UTC)temp
F
wind
direction
speed
MPH
gust
MPH
rain 1hr
in
rain 24hr
in
rain mn
in
humidity
%
barometer
mb
20260902024004 61 277 2.0 6.0 0.00 0.00 0.00 57 1015.5
20260902023504 62 276 1.0 3.0 0.00 0.00 0.00 57 1015.4
20260902022504 63 311 1.0 3.0 0.00 0.00 0.00 55 1015.4
20260902022004 63 311 1.0 3.0 0.00 0.00 0.00 54 1015.4
20260902021504 63 305 2.0 3.0 0.00 0.00 0.00 54 1015.3
20260902021003 64 312 1.0 3.0 0.00 0.00 0.00 53 1015.3
20260902020504 64 254 2.0 3.0 0.00 0.00 0.00 52 1015.2
20260902020004 65 262 3.0 8.0 0.00 0.00 0.00 52 1015.3
20260902015506 65 283 2.0 3.0 0.00 0.00 0.00 51 1015.2
20260902015004 65 253 2.0 7.0 0.00 0.00 0.00 51 1015.1
20260902014505 66 261 2.0 7.0 0.00 0.00 0.00 51 1015.2
20260902014005 66 305 2.0 8.0 0.00 0.00 0.00 50 1015.2
20260902012005 67 241 1.0 8.0 0.00 0.00 0.00 49 1015.1
20260902011504 67 324 3.0 7.0 0.00 0.00 0.00 48 1014.9
20260902011005 68 274 3.0 9.0 0.00 0.00 0.00 48 1014.9
20260902010506 68 327 3.0 7.0 0.00 0.00 0.00 48 1014.9
20260902010005 68 281 2.0 7.0 0.00 0.00 0.00 48 1015.1
20260902005505 68 273 2.0 6.0 0.00 0.00 0.00 48 1015.1
20260902005005 68 258 3.0 9.0 0.00 0.00 0.00 48 1015.2
20260902004505 68 230 3.0 8.0 0.00 0.00 0.00 48 1015.2
20260902003505 68 195 4.0 9.0 0.00 0.00 0.00 48 1015.0
20260902003005 68 219 5.0 10.0 0.00 0.00 0.00 47 1015.0
20260902002505 68 223 3.0 10.0 0.00 0.00 0.00 47 1015.2
20260902002006 69 247 4.0 8.0 0.00 0.00 0.00 48 1015.2
20260902001505 68 308 3.0 7.0 0.00 0.00 0.00 48 1015.3
20260902000505 68 193 3.0 8.0 0.00 0.00 0.00 48 1015.1
20260901235505 68 268 3.0 8.0 0.00 0.00 0.00 49 1015.2
20260901235006 68 212 3.0 10.0 0.00 0.00 0.00 49 1015.2
20260901234505 68 218 5.0 10.0 0.00 0.00 0.00 49 1015.3
20260901233504 68 291 3.0 9.0 0.00 0.00 0.00 49 1015.3
20260901233005 68 193 2.0 8.0 0.00 0.00 0.00 49 1015.3
20260901232505 68 238 4.0 9.0 0.00 0.00 0.00 49 1015.5
20260901232005 68 246 5.0 9.0 0.00 0.00 0.00 50 1015.4
20260901231505 68 214 3.0 7.0 0.00 0.00 0.00 50 1015.5
20260901225505 67 173 2.0 7.0 0.00 0.00 0.00 52 1015.4
20260901225005 66 204 3.0 7.0 0.00 0.00 0.00 53 1015.3
20260901224505 66 271 3.0 10.0 0.00 0.00 0.00 52 1015.4
20260901224005 67 252 3.0 7.0 0.00 0.00 0.00 52 1015.3
20260901223505 67 260 2.0 7.0 0.00 0.00 0.00 52 1015.3
20260901223006 67 211 2.0 7.0 0.00 0.00 0.00 52 1015.4
20260901222505 68 273 3.0 8.0 0.00 0.00 0.00 51 1015.4
20260901222005 68 228 5.0 10.0 0.00 0.00 0.00 51 1015.4
20260901221505 69 275 3.0 10.0 0.00 0.00 0.00 49 1015.4
20260901221005 69 277 2.0 10.0 0.00 0.00 0.00 51 1015.6
20260901220505 68 271 3.0 7.0 0.00 0.00 0.00 50 1015.6
20260901220005 68 221 2.0 9.0 0.00 0.00 0.00 51 1015.7
20260901215505 68 228 3.0 6.0 0.00 0.00 0.00 51 1015.7
20260901215005 68 228 5.0 12.0 0.00 0.00 0.00 50 1015.7
20260901214505 69 175 6.0 12.0 0.00 0.00 0.00 47 1015.7
20260901214005 69 177 4.0 13.0 0.00 0.00 0.00 47 1015.7
20260901213504 69 187 3.0 13.0 0.00 0.00 0.00 48 1015.7
20260901213004 69 193 6.0 10.0 0.00 0.00 0.00 45 1015.6
20260901212505 69 167 6.0 12.0 0.00 0.00 0.00 45 1015.8
20260901212004 69 196 5.0 10.0 0.00 0.00 0.00 46 1015.8
20260901211505 70 206 6.0 10.0 0.00 0.00 0.00 46 1015.8
20260901211005 69 211 5.0 12.0 0.00 0.00 0.00 44 1015.6
20260901210505 70 250 9.0 15.0 0.00 0.00 0.00 41 1015.6
20260901210005 71 219 7.0 13.0 0.00 0.00 0.00 41 1015.6
20260901205504 71 187 6.0 10.0 0.00 0.00 0.00 43 1015.6
20260901204505 69 182 6.0 12.0 0.00 0.00 0.00 44 1015.8
20260901204005 69 221 7.0 12.0 0.00 0.00 0.00 44 1015.7
20260901203505 69 194 6.0 12.0 0.00 0.00 0.00 48 1015.7
20260901202504 67 193 7.0 13.0 0.00 0.00 0.00 45 1015.7
20260901202004 68 216 7.0 12.0 0.00 0.00 0.00 46 1015.8
20260901201004 68 187 7.0 12.0 0.00 0.00 0.00 47 1015.8
20260901200504 67 234 6.0 13.0 0.00 0.00 0.00 47 1015.8
20260901200005 68 219 9.0 14.0 0.00 0.00 0.00 47 1016.0
20260901195005 68 215 7.0 15.0 0.00 0.00 0.00 48 1016.1
20260901194504 69 217 5.0 13.0 0.00 0.00 0.00 51 1016.1
20260901194005 69 183 7.0 15.0 0.00 0.00 0.00 46 1016.0
20260901193505 69 194 5.0 10.0 0.00 0.00 0.00 46 1015.9
20260901193005 69 175 10.0 17.0 0.00 0.00 0.00 45 1015.9
20260901192505 69 232 6.0 12.0 0.00 0.00 0.00 48 1016.1
20260901192004 68 207 6.0 14.0 0.00 0.00 0.00 50 1016.1
20260901191505 68 224 8.0 15.0 0.00 0.00 0.00 53 1016.0
20260901191006 67 192 6.0 15.0 0.00 0.00 0.00 53 1016.0
20260901190505 67 175 6.0 12.0 0.00 0.00 0.00 55 1016.0
20260901184505 64 177 4.0 10.0 0.00 0.00 0.00 63 1016.0
20260901183504 63 201 3.0 7.0 0.00 0.00 0.00 64 1016.3
20260901183005 62 144 4.0 9.0 0.00 0.00 0.00 65 1016.2
20260901182504 62 191 3.0 7.0 0.00 0.00 0.00 66 1016.3
20260901182004 61 189 2.0 7.0 0.00 0.00 0.00 67 1016.2
20260901181504 61 224 1.0 6.0 0.00 0.00 0.00 68 1016.3
20260901181004 61 204 4.0 8.0 0.00 0.00 0.00 68 1016.3
20260901180505 61 198 5.0 8.0 0.00 0.00 0.00 68 1016.4
20260901180005 60 194 5.0 7.0 0.00 0.00 0.00 69 1016.5
20260901175504 60 246 4.0 9.0 0.00 0.00 0.00 70 1016.4
20260901175005 60 221 6.0 12.0 0.00 0.00 0.00 70 1016.4
20260901174505 60 291 2.0 7.0 0.00 0.00 0.00 70 1016.3
20260901174007 59 210 4.0 6.0 0.00 0.00 0.00 71 1016.2
20260901173505 58 184 4.0 8.0 0.00 0.00 0.00 72 1016.2
20260901173005 58 232 3.0 8.0 0.00 0.00 0.00 72 1016.0
20260901172504 58 208 4.0 8.0 0.00 0.00 0.00 73 1016.1
20260901172004 58 181 2.0 9.0 0.00 0.00 0.00 74 1016.0
20260901171504 58 189 2.0 6.0 0.00 0.00 0.00 74 1016.0
20260901171005 57 215 2.0 6.0 0.00 0.00 0.00 74 1015.8
20260901170505 57 215 1.0 3.0 0.00 0.00 0.00 76 1015.9
20260901170004 57 216 3.0 6.0 0.00 0.00 0.00 77 1015.9
20260901165504 56 229 2.0 5.0 0.00 0.00 0.00 77 1015.8
20260901165005 57 271 2.0 3.0 0.00 0.00 0.00 77 1015.9
20260901164005 56 278 3.0 6.0 0.00 0.00 0.00 80 1015.9
20260901163504 55 198 3.0 6.0 0.00 0.00 0.00 81 1015.8
20260901163005 55 249 2.0 5.0 0.00 0.00 0.00 82 1015.7
20260901162504 54 221 2.0 6.0 0.00 0.00 0.00 83 1015.6
20260901162005 54 189 3.0 6.0 0.00 0.00 0.00 84 1015.6
20260901161504 53 238 1.0 5.0 0.00 0.00 0.00 84 1015.4
20260901161005 53 238 2.0 3.0 0.00 0.00 0.00 85 1015.4
20260901160505 52 238 3.0 5.0 0.00 0.00 0.00 86 1015.3
20260901160005 52 244 0.0 3.0 0.00 0.00 0.00 86 1015.5
20260901155504 52 244 2.0 3.0 0.00 0.00 0.00 87 1015.5
20260901155005 52 245 2.0 3.0 0.00 0.00 0.00 88 1015.5
20260901154505 51 250 2.0 3.0 0.00 0.00 0.00 88 1015.5
20260901153505 51 250 1.0 3.0 0.00 0.00 0.00 89 1015.3
20260901153004 51 254 2.0 3.0 0.00 0.00 0.00 90 1015.3
20260901152004 50 259 1.0 3.0 0.00 0.00 0.00 90 1015.0
20260901151505 50 259 1.0 3.0 0.00 0.00 0.00 90 1015.0
20260901150504 50 259 1.0 2.0 0.00 0.00 0.00 90 1014.7
20260901150004 50 259 1.0 3.0 0.00 0.00 0.00 90 1014.8
20260901145005 50 258 0.0 2.0 0.00 0.00 0.00 90 1014.6
20260901144504 50 258 1.0 2.0 0.00 0.00 0.00 90 1014.5
20260901144004 50 258 1.0 3.0 0.00 0.00 0.00 90 1014.4
20260901143505 50 258 1.0 2.0 0.00 0.00 0.00 91 1014.3
20260901143005 50 258 0.0 2.0 0.00 0.00 0.00 90 1014.3
20260901142504 50 258 0.0 2.0 0.00 0.00 0.00 91 1014.3
20260901142005 50 258 1.0 2.0 0.00 0.00 0.00 91 1014.3
20260901141504 50 258 1.0 3.0 0.00 0.00 0.00 91 1014.2
20260901140504 50 258 0.0 2.0 0.00 0.00 0.00 91 1014.1
20260901140004 50 258 0.0 1.0 0.00 0.00 0.00 91 1014.1
20260901135504 50 258 1.0 2.0 0.00 0.00 0.00 91 1014.2
20260901134504 50 258 0.0 0.0 0.00 0.00 0.00 92 1014.3
20260901134004 50 258 0.0 0.0 0.00 0.00 0.00 92 1014.4
20260901133504 50 258 0.0 2.0 0.00 0.00 0.00 92 1014.4
20260901133004 50 258 0.0 1.0 0.00 0.00 0.00 93 1014.4
20260901132504 50 258 0.0 1.0 0.00 0.00 0.00 93 1014.5
20260901132005 49 258 0.0 1.0 0.00 0.00 0.00 93 1014.4
20260901131505 49 258 0.0 1.0 0.00 0.00 0.00 93 1014.5
20260901130505 49 258 0.0 2.0 0.00 0.00 0.00 93 1014.4
20260901130004 49 258 0.0 3.0 0.00 0.00 0.00 93 1014.5
20260901125504 49 258 1.0 2.0 0.00 0.00 0.00 93 1014.4
20260901125004 49 258 2.0 6.0 0.00 0.00 0.00 93 1014.4
20260901124505 49 320 1.0 3.0 0.00 0.00 0.00 93 1014.4
20260901124005 49 258 1.0 3.0 0.00 0.00 0.00 93 1014.2
20260901123504 49 261 2.0 6.0 0.00 0.00 0.00 92 1014.0
20260901122504 49 256 1.0 6.0 0.00 0.00 0.00 92 1013.7
20260901122004 48 261 1.0 3.0 0.00 0.00 0.00 91 1013.4
20260901121504 48 271 2.0 3.0 0.00 0.00 0.00 91 1013.4
20260901121005 48 294 1.0 3.0 0.00 0.00 0.00 90 1013.4
20260901120004 49 253 2.0 7.0 0.00 0.00 0.00 89 1013.6
20260901115504 49 253 2.0 7.0 0.00 0.00 0.00 87 1013.5
20260901114504 51 261 3.0 8.0 0.00 0.00 0.00 83 1013.3
20260901113504 54 275 0.0 0.0 0.00 0.00 0.00 75 1013.1
20260901113004 55 275 0.0 0.0 0.00 0.00 0.00 74 1012.8
20260901112504 56 275 0.0 0.0 0.00 0.00 0.00 69 1012.8
20260901112004 56 275 0.0 0.0 0.00 0.00 0.00 68 1013.1
20260901111504 57 275 0.0 0.0 0.00 0.00 0.00 66 1013.0
20260901111004 57 275 0.0 0.0 0.00 0.00 0.00 64 1013.1
20260901110504 58 275 0.0 0.0 0.00 0.00 0.00 64 1013.1
20260901110005 58 275 0.0 0.0 0.00 0.00 0.00 63 1012.9
20260901105504 57 275 0.0 0.0 0.00 0.00 0.00 63 1013.1
20260901105005 57 275 0.0 0.0 0.00 0.00 0.00 63 1013.1
20260901104004 57 275 0.0 0.0 0.00 0.00 0.00 65 1013.2
20260901103505 57 275 0.0 0.0 0.00 0.00 0.00 64 1013.3
20260901103004 57 275 0.0 0.0 0.00 0.00 0.00 63 1013.3
20260901102005 58 275 0.0 0.0 0.00 0.00 0.00 62 1013.0
20260901101504 57 275 0.0 0.0 0.00 0.00 0.00 62 1013.1
20260901101004 57 275 0.0 0.0 0.00 0.00 0.00 64 1013.1
20260901100504 57 275 0.0 0.0 0.00 0.00 0.00 67 1013.0
20260901100005 57 275 0.0 0.0 0.00 0.00 0.00 69 1013.0
20260901095004 56 275 0.0 0.0 0.00 0.00 0.00 69 1013.2
20260901094505 56 275 0.0 0.0 0.00 0.00 0.00 68 1013.2
20260901094004 55 275 0.0 2.0 0.00 0.00 0.00 70 1013.2
20260901093504 55 275 1.0 2.0 0.00 0.00 0.00 72 1013.1
20260901093004 54 275 1.0 2.0 0.00 0.00 0.00 75 1013.2
20260901092504 54 275 1.0 3.0 0.00 0.00 0.00 79 1013.3
20260901092005 54 275 2.0 2.0 0.00 0.00 0.00 81 1013.3
20260901091504 53 275 2.0 2.0 0.00 0.00 0.00 83 1013.3
20260901090504 52 275 2.0 3.0 0.00 0.00 0.00 85 1013.3
20260901090004 52 275 2.0 3.0 0.00 0.00 0.00 84 1013.5
20260901084505 52 275 0.0 0.0 0.00 0.00 0.00 85 1013.6
20260901084005 52 275 0.0 0.0 0.00 0.00 0.00 84 1013.7
20260901083504 52 275 0.0 2.0 0.00 0.00 0.00 85 1013.7
20260901083005 52 275 1.0 2.0 0.00 0.00 0.00 85 1013.7
20260901082505 52 275 0.0 2.0 0.00 0.00 0.00 84 1013.7
20260901082004 52 275 2.0 3.0 0.00 0.00 0.00 84 1013.8
20260901081504 52 275 1.0 3.0 0.00 0.00 0.00 84 1013.7
20260901081004 52 275 0.0 2.0 0.00 0.00 0.00 84 1013.6
20260901080504 53 275 1.0 2.0 0.00 0.00 0.00 84 1013.6
20260901075504 53 275 1.0 2.0 0.00 0.00 0.00 83 1013.6
20260901075005 53 275 0.0 0.0 0.00 0.00 0.00 82 1013.6
20260901074504 53 275 0.0 0.0 0.00 0.00 0.00 81 1013.5
20260901074005 53 275 0.0 0.0 0.00 0.00 0.00 81 1013.5
20260901073504 54 275 0.0 0.0 0.00 0.00 0.00 81 1013.5
20260901073004 54 275 0.0 0.0 0.00 0.00 0.00 80 1013.5
20260901071504 54 275 0.0 0.0 0.00 0.00 0.00 80 1013.4
20260901071011 54 275 0.0 0.0 0.00 0.00 0.00 79 1013.4
20260901070004 55 275 0.0 0.0 0.00 0.00 0.00 80 1013.4
20260901065504 55 275 0.0 0.0 0.00 0.00 0.00 78 1013.4
20260901065004 55 275 0.0 0.0 0.00 0.00 0.00 78 1013.3
20260901064504 55 275 0.0 0.0 0.00 0.00 0.00 77 1013.3
20260901064004 56 275 0.0 0.0 0.00 0.00 0.00 76 1013.4
20260901063504 56 275 0.0 0.0 0.00 0.00 0.00 76 1013.3
20260901063004 56 275 0.0 0.0 0.00 0.00 0.00 76 1013.3
20260901062504 57 275 0.0 0.0 0.00 0.00 0.00 76 1013.2
20260901062005 57 275 0.0 0.0 0.00 0.00 0.00 75 1013.2
20260901061504 57 275 0.0 0.0 0.00 0.00 0.00 76 1013.3
20260901061004 57 275 0.0 0.0 0.00 0.00 0.00 76 1013.1
20260901060504 57 275 0.0 2.0 0.00 0.00 0.00 76 1013.0
20260901060004 56 275 1.0 2.0 0.00 0.00 0.00 76 1013.4
20260901055503 57 275 1.0 2.0 0.00 0.00 0.00 76 1013.4
20260901054504 57 275 1.0 2.0 0.00 0.00 0.00 75 1013.3
20260901054004 57 275 0.0 2.0 0.00 0.00 0.00 73 1013.3
20260901053504 58 275 0.0 1.0 0.00 0.00 0.00 73 1013.4
20260901052004 59 275 0.0 0.0 0.00 0.00 0.00 72 1013.5
20260901051504 59 275 0.0 0.0 0.00 0.00 0.00 71 1013.5
20260901051003 60 275 0.0 0.0 0.00 0.00 0.00 70 1013.5
20260901050504 60 275 0.0 0.0 0.00 0.00 0.00 70 1013.5
20260901050004 60 275 0.0 0.0 0.00 0.00 0.00 70 1013.6
20260901045004 60 275 0.0 0.0 0.00 0.00 0.00 70 1013.4
20260901044506 61 275 0.0 1.0 0.00 0.00 0.00 70 1013.5
20260901044004 61 275 1.0 2.0 0.00 0.00 0.00 69 1013.5
20260901043504 61 275 1.0 2.0 0.00 0.00 0.00 69 1013.4
20260901042504 61 275 1.0 2.0 0.00 0.00 0.00 69 1013.4
20260901042004 61 275 0.0 0.0 0.00 0.00 0.00 69 1013.4
20260901041504 61 275 0.0 0.0 0.00 0.00 0.00 69 1013.4
20260901041003 61 275 0.0 1.0 0.00 0.00 0.00 69 1013.4
20260901040503 61 275 1.0 2.0 0.00 0.00 0.00 67 1013.4
20260901040004 62 275 0.0 2.0 0.00 0.00 0.00 67 1013.2
20260901035504 62 275 1.0 2.0 0.00 0.00 0.00 67 1013.2
20260901035004 62 275 1.0 2.0 0.00 0.00 0.00 65 1013.1
20260901034504 63 275 0.0 2.0 0.00 0.00 0.00 65 1013.1
20260901034005 63 275 0.0 2.0 0.00 0.00 0.00 65 1013.1
20260901033503 63 275 1.0 2.0 0.00 0.00 0.00 64 1013.1
20260901033004 64 275 0.0 2.0 0.00 0.00 0.00 63 1013.1
20260901032504 64 275 1.0 2.0 0.00 0.00 0.00 63 1013.1
20260901032004 64 275 1.0 3.0 0.00 0.00 0.00 62 1012.9
20260901031004 65 274 1.0 3.0 0.00 0.00 0.00 60 1012.9
20260901030504 66 278 2.0 6.0 0.00 0.00 0.00 59 1013.0
20260901030004 67 263 2.0 6.0 0.00 0.00 0.00 57 1012.9
20260901025004 68 277 1.0 2.0 0.00 0.00 0.00 52 1012.9
20260901024503 69 277 2.0 3.0 0.00 0.00 0.00 51 1012.9